Printer-friendly version

IAU Minor Planet Center

Minor Planet Center

MPEC 2006-Q32 : 2006 QK33

The following Minor Planet Electronic Circular may be linked-to from your own Web pages, but must not otherwise be redistributed electronically.


Read MPEC 2006-Q31 Read MPEC 2006-Q33


M.P.E.C. 2006-Q32                                Issued 2006 Aug. 25, 12:14 UT

     The Minor Planet Electronic Circulars contain information on unusual
         minor planets and routine data on comets.  They are published
   on behalf of Commission 20 of the International Astronomical Union by the
          Minor Planet Center, Smithsonian Astrophysical Observatory,
                          Cambridge, MA 02138, U.S.A.

                  Supported in part by the Brinson Foundation
                  Supported in part by the TABASGO Foundation
             Prepared using the Tamkin Foundation Computer Network

                              MPC@CFA.HARVARD.EDU
          URL http://cfa-www.harvard.edu/iau/mpc.html  ISSN 1523-6714

                                   2006 QK33

Observations:
     K06Q33K* C2006 08 23.24977 23 53 10.63 -03 56 45.1          18.7   EQ032704
     K06Q33K  C2006 08 23.26049 23 53 24.72 -03 59 00.0          19.4   EQ032704
     K06Q33K  C2006 08 23.27129 23 53 39.11 -04 01 14.9          18.8   EQ032704
     K06Q33K  C2006 08 23.28218 23 53 53.45 -04 03 30.6          18.9   EQ032704
     K06Q33K  C2006 08 23.29312 23 54 07.93 -04 05 47.8          19.3   EQ032704
     K06Q33K  C2006 08 25.03229 00 33 26.31 -09 57 06.4                 EQ032J95
     K06Q33K  C2006 08 25.03335 00 33 27.69 -09 57 19.9                 EQ032J95
     K06Q33K  C2006 08 25.03441 00 33 29.07 -09 57 31.3          18.9 R EQ032J95
     K06Q33K  C2006 08 25.27729 00 38 52.42 -10 43 22.1          19.1 R EQ032850
     K06Q33K  C2006 08 25.29780 00 39 18.49 -10 47 15.8          18.2 R EQ032850
     K06Q33K 5C2006 08 25.39373 00 41 24.89 -11 05 15.4          19.0 R EQ032673

Observer details:
673 Table Mountain Observatory, Wrightwood.  Observer J. Young.  0.61-m f/16
    Cassegrain + CCD.
704 Lincoln Laboratory ETS, New Mexico.  Observers M. Bezpalko, L. Manguso,
    D. Torres, R. Kracke, H. Love, G. Spitz, J. Kistler.  Measurers J. Stuart,
    J. Kommers.  1.0-m f/2.15 reflector + CCD.
850 Cordell-Lorenz Observatory, Sewanee.  Observers D. T. Durig, D. S. Hardage,
    J. E. Duke.  Measurer D. T. Durig.  0.30-m f/9.7 Schmidt-Cassegrain
    + 1Kx1K CCD.
J95 Great Shefford.  Observer P. Birtwhistle.  0.40-m f/6.0 Schmidt-Cassegrain
    + CCD.

Orbital elements:
2006 QK33                                                Earth MOID = 0.0498 AU
Epoch 2006 Sept. 22.0 TT = JDT 2454000.5                MPC
M   4.53934              (2000.0)            P               Q
n   0.23858201     Peri.  192.88256     +0.95556294     +0.26724290
a   2.5746069      Node   150.68345     -0.24288392     +0.95293653
e   0.5911270      Incl.   14.72091     -0.16705348     +0.14315449
P   4.13           H   23.6           G   0.15           U   6
Residuals in seconds of arc
060823 704  0.6+  0.9+    060823 704  0.5+  0.6-    060825 850  0.1+  0.8+
060823 704  1.2-  0.1-    060825 J95  0.1-  0.5+    060825 850  0.6-  0.1+
060823 704  0.4+  0.2-    060825 J95  0.0   0.7-    060825 673  0.4+  0.6-
060823 704  0.3-  0.0     060825 J95  0.1+  0.2+

Ephemeris:
2006 QK33                a,e,i = 2.57, 0.59, 15                  q = 1.0527
Date    TT    R. A. (2000) Decl.     Delta      r     Elong.  Phase     V
2006 08 23    23 47.38   -03 03.2    0.0563   1.062   153.7    24.9    18.6
2006 08 25    00 32.66   -09 48.5    0.0574   1.059   146.0    32.3    18.9
2006 08 27    01 15.34   -15 40.1    0.0614   1.057   137.4    40.3    19.3
2006 08 29    01 52.93   -20 12.7    0.0677   1.055   129.8    47.4    19.7
2006 08 31    02 24.53   -23 30.2    0.0757   1.053   123.6    52.9    20.1
2006 09 02    02 50.42   -25 49.4    0.0849   1.053   118.9    57.0    20.4
2006 09 04    03 11.43   -27 27.3    0.0949   1.053   115.4    59.9    20.7
2006 09 06    03 28.47   -28 37.0    0.105    1.053   112.8    61.9    21.0
2006 09 08    03 42.35   -29 27.5    0.116    1.055   110.9    63.2    21.3
2006 09 10    03 53.72   -30 04.9    0.127    1.057   109.6    63.9    21.5
2006 09 12    04 03.10   -30 33.3    0.139    1.059   108.7    64.2    21.7
2006 09 14    04 10.86   -30 55.2    0.150    1.062   108.1    64.2    21.9
2006 09 16    04 17.30   -31 12.4    0.161    1.066   107.8    63.9    22.0
2006 09 18    04 22.65   -31 26.0    0.173    1.070   107.8    63.4    22.2
2006 09 20    04 27.07   -31 36.8    0.184    1.075   107.9    62.8    22.3
2006 09 22    04 30.71   -31 45.3    0.195    1.081   108.2    62.0    22.4

Timothy B. Spahr             (C) Copyright 2006 MPC           M.P.E.C. 2006-Q32

Read MPEC 2006-Q31 Read MPEC 2006-Q33


Our Web policy. Index to the CBAT/MPC/ICQ pages.


Valid HTML 4.01!